Regional Weather Roundup
Issued by NWS Huntsville, AL

Home | Current Version | Previous Version | Text Only | Print | Product List | Glossary On
Versions: 1 2 3 4 5 6 7 8 9 10 11 12 13 14 15 16 17 18 19 20 21 22 23 24 25 26 27 28 29 30 31 32 33 34 35 36 37 38 39 40 41 42 43 44 45 46 47 48 49 50
000
ASUS44 KHUN 270710
RWRHUN

WEATHER ROUNDUP FOR THE TENNESSEE VALLEY
NATIONAL WEATHER SERVICE HUNTSVILLE AL
200 AM CDT THU APR 27 2017

ALZ001>004-270800-
NORTHWEST ALABAMA

CITY           SKY/WX    TMP DP  RH WIND       PRES   REMARKS
COURTLAND HCN    N/A     64 N/A N/A W10         N/A
RUSSELLVILLE     N/A     63 N/A N/A MISG        N/A
SHOALS AIRPORT RAIN      63  59  87 E7        29.62F
SHOALS TVA RES   N/A     63 N/A N/A MISG        N/A
$$

ALZ005>007-016-270800-
NORTH CENTRAL ALABAMA

CITY           SKY/WX    TMP DP  RH WIND       PRES   REMARKS
CULLMAN AG STN   N/A     68 N/A N/A S9          N/A
DECATUR AP     TSTM      65  62  90 S7        29.64F
HUNTSVILLE AP  TSTM      68  62  81 S9        29.63S
MERIDIANVILLE  TSTM      68  55  64 S9        29.65R
REDSTONE ARSN  LGT RAIN  66  61  82 S7        29.62F
VINEMONT AP    TSTM      65  60  86 S13G18    29.67F
$$

ALZ008>010-270800-
NORTHEAST ALABAMA

CITY           SKY/WX    TMP DP  RH WIND       PRES   REMARKS
ALBERTVILLE    CLOUDY    68  63  83 SE12G18   29.67F
FORT PAYNE     CLOUDY    68  52  56 CALM      29.71F
SCOTTSBORO AP  CLOUDY    70  57  64 S8        29.68F
SCOTTSBORO HCN   N/A     70 N/A N/A MISG        N/A
VALLEY HEAD      N/A     66 N/A N/A MISG        N/A
$$

TNZ076-096-097-270800-
SOUTHEASTERN MIDDLE TENNESSEE

CITY           SKY/WX    TMP DP  RH WIND       PRES   REMARKS
TULLAHOMA      MOCLDY    70  54  56 S8        29.65F
WINCHESTER     CLEAR     70  57  64 S15       29.65F
$$

...SURROUNDING SITES...

CITY           SKY/WX    TMP DP  RH WIND       PRES   REMARKS
ATLANTA        CLOUDY    66  56  70 S9        29.80F
ANNISTON       CLOUDY    70  61  73 SE7       29.73F
BIRMINGHAM     TSTM      69  62  78 S16G28    29.68F
CHATTANOOGA    MOCLDY    69  57  65 SE6       29.72F
CORINTH        MOCLDY    63  61  94 S3G12     29.60F
DALTON         CLOUDY    68  57  68 SE7       29.76S
GADSDEN        CLOUDY    70  59  68 S8        29.71F
GOLDEN TRNGL   CLOUDY    64  59  82 SE6       29.62R THUNDER
HALEYVILLE     LGT RAIN  62  61  96 CALM      29.66F
JACKSON TN     PTCLDY    61  60  97 S7        29.59S
MEMPHIS        CLOUDY    55  54  96 NW16G23   29.63R
NASHVILLE      RAIN      66  62  87 NW12      29.64F
OXFORD MS      CLOUDY    59  59 100 SW8       29.66R
ROME           CLOUDY    64  57  78 SE7       29.73F
SAVANNAH       PTCLDY    63  61  94 S3        29.59R
TUPELO         CLOUDY    63  60  90 S6        29.63R
TUSCALOOSA     HVY RAIN  65  64  97 SW6       29.68S FOG
$$

...GULF COAST WEATHER...

CITY           SKY/WX    TMP DP  RH WIND       PRES   REMARKS
GULFPORT       CLOUDY    76  73  91 S8        29.70F
PASCAGOULA     CLOUDY    76  70  82 S12G20    29.71F
MOBILE         CLOUDY    76  70  82 S15G23    29.73S
GULF SHORES    CLOUDY    75  75 100 S7G24     29.74S
PENSACOLA      CLOUDY    76  72  87 S14G26    29.73F
DESTIN         LGT RAIN  77  77 100 S12       29.76
PANAMA CITY    CLOUDY    74  72  92 S15       29.79F
APPALACHICOLA  CLOUDY    75  74  96 S17G25    29.81F
$$




USA.gov is the U.S. government's official web portal to all federal, state and local government web resources and services.